Tracking 20628 objects as of 6-Apr-2020
HD Live streaming from Space Station
objects crossing your sky now

COSMOS 2248

Track COSMOS 2248 now!
10-day predictions
COSMOS 2248 is classified as:


NORAD ID: 22649
Int'l Code: 1993-030D
Perigee: 1,407.9 km
Apogee: 1,423.8 km
Inclination: 82.6 °
Period: 114.0 minutes
Semi major axis: 7786 km
RCS: 1.0352 m2 (large)
Launch date: May 11, 1993
Source: Commonwealth of Independent States (former USSR) (CIS)
Launch site: PLESETSK MISSILE AND SPACE COMPLEX (PKMTR)
aabbcc
Your satellite tracking list
Your tracking list is empty




NASA's NSSDC Master Catalog

Two Line Element Set (TLE):
1 22649U 93030D   20096.65124768 +.00000035 +00000-0 +13261-3 0  9998
2 22649 082.5775 318.7123 0010243 034.8529 325.3232 12.63453910240599
Source of the keplerian elements: AFSPC